Weather History for KBHK - January, 2013

Change the Weather History Date:

Friday, January 18, 2013

  Actual Average (WUND) Record (WUND)
Temperature  
Mean Temperature 35 °F -  
Max Temperature 42 °F - - (-1)
Min Temperature 28 °F - - (-1)
Degree Days  
Heating Degree Days 30    
Moisture  
Dew Point 22 °F    
Average Humidity 57    
Maximum Humidity 66    
Minimum Humidity 49    
Precipitation  
Precipitation 0.00 in - - ()
Sea Level Pressure  
Sea Level Pressure 29.89 in    
Wind  
Wind Speed 14 mph (West)    
Max Wind Speed 20 mph    
Max Gust Speed -    
Visibility 10 miles    
Events      
Averages and records for this station are not official NWS values.
T = Trace of Precipitation, MM = Missing Value Source: NWS Daily Summary

Daily Weather History Graph

Daily Weather History Graph

Search for Another Location

Airport or City:

Trip Planner

Search our weather history database for the weather conditions in past years. The results will help you decide how hot, cold, wet, or windy it might be!

Date:

Astronomy

Jan. 18, 2013 Rise Set
Actual Time 7:33 AM MST 4:41 PM MST
Civil Twilight 7:00 AM MST 5:15 PM MST
Nautical Twilight 6:23 AM MST 5:52 PM MST
Astronomical Twilight 5:47 AM MST 6:28 PM MST
Moon 10:44 AM MST (1/18) 12:02 AM MST (1/18)
Length of Visible Light 10h 14m
Length of Day
9h 07m
Waxing Crescent, 48% of the Moon is Illuminated
Jan 18
Waxing Crescent
Jan 18
First Quarter
Jan 26
Full
Feb 3
Last Quarter
Feb 10
New

Hourly Weather History & Observations

Time (MST) Temp. Windchill Dew Point Humidity Pressure Visibility Wind Dir Wind Speed Gust Speed Precip Events Conditions
12:51 AM 34.0 °F 22.7 °F 19.9 °F 56% 29.93 in 10.0 mi West 19.6 mph - N/A   Clear
1:51 AM 35.1 °F 25.5 °F 19.9 °F 54% 29.93 in 10.0 mi West 15.0 mph - N/A   Clear
2:51 AM 32.0 °F 22.1 °F 19.0 °F 59% 29.93 in 10.0 mi West 13.8 mph - N/A   Clear
3:51 AM 32.0 °F 22.1 °F 19.0 °F 59% 29.92 in 10.0 mi West 13.8 mph - N/A   Clear
4:51 AM 30.0 °F 21.1 °F 19.0 °F 64% 29.92 in 10.0 mi West 10.4 mph - N/A   Clear
5:51 AM 30.9 °F 21.7 °F 19.0 °F 61% 29.92 in 10.0 mi West 11.5 mph - N/A   Clear
7:51 AM 28.9 °F 18.6 °F 18.0 °F 64% 29.92 in 10.0 mi West 12.7 mph - N/A   Clear
8:51 AM 33.1 °F 23.0 °F 19.0 °F 56% 29.93 in 10.0 mi WSW 15.0 mph - N/A   Clear
9:51 AM 37.0 °F 29.8 °F 21.9 °F 54% 29.93 in 10.0 mi WSW 10.4 mph - N/A   Clear
10:51 AM 41.0 °F 33.9 °F 23.0 °F 49% 29.90 in 10.0 mi West 12.7 mph - N/A   Clear
11:51 AM 42.1 °F 36.1 °F 24.1 °F 49% 29.87 in 10.0 mi West 10.4 mph - N/A   Clear
12:51 PM 42.1 °F 35.2 °F 24.1 °F 49% 29.85 in 10.0 mi West 12.7 mph - N/A   Clear
1:51 PM 42.1 °F 36.1 °F 25.0 °F 51% 29.84 in 10.0 mi West 10.4 mph - N/A   Clear
2:51 PM 39.9 °F 32.1 °F 24.1 °F 53% 29.84 in 10.0 mi West 13.8 mph - N/A   Clear
3:51 PM 39.0 °F 31.0 °F 24.1 °F 55% 29.84 in 10.0 mi West 13.8 mph - N/A   Clear
4:51 PM 37.9 °F 30.5 °F 24.1 °F 57% 29.86 in 10.0 mi West 11.5 mph - N/A   Clear
5:51 PM 37.9 °F 30.0 °F 23.0 °F 55% 29.85 in 10.0 mi West 12.7 mph - N/A   Clear
6:51 PM 36.0 °F 28.0 °F 24.1 °F 62% 29.86 in 10.0 mi West 11.5 mph - N/A   Clear
7:51 PM 34.0 °F 25.0 °F 23.0 °F 64% 29.88 in 10.0 mi West 12.7 mph - N/A   Overcast
9:51 PM 36.0 °F 27.5 °F 24.1 °F 62% 29.87 in 10.0 mi WNW 12.7 mph - N/A   Overcast
10:51 PM 33.1 °F 24.4 °F 23.0 °F 66% 29.88 in 10.0 mi West 11.5 mph - N/A   Overcast